When you browse on this site, cookies collect data to enhance your experience and personalize the content and advertising you see.
Visit our Privacy Policy to learn more. By continuing to use the site, you agree to this use of cookies and data.
  • In Lithuania
  • List of Countries
  • For 7 days
  • Water Temperature
  • Weather Map
  • Weather Widgets
  • user-avatar
    Login

    Hourly Weather Klagenfurt

    Today, 21 October, Monday

    Time Temperature Precipitation Wind Pressure Humidity
    00:00 +12°C° 0 mm 2 mps 691 mmHg 96%
    01:00 +12°C° 0 mm 2 mps 692 mmHg 96%
    02:00 +12°C° 0 mm 2 mps 691 mmHg 96%
    03:00 +12°C° 0 mm 1 mps 691 mmHg 97%
    04:00 +12°C° 0 mm 1 mps 691 mmHg 97%
    05:00 +12°C° 0 mm 1 mps 691 mmHg 97%
    06:00 +12°C° 0 mm 1 mps 692 mmHg 97%
    07:00 +13°C° 0 mm 1 mps 692 mmHg 96%
    08:00 +14°C° 0 mm 2 mps 692 mmHg 92%
    09:00 +15°C° 0 mm 2 mps 693 mmHg 87%
    10:00 +17°C° 0 mm 2 mps 693 mmHg 82%
    11:00 +18°C° 0 mm 2 mps 694 mmHg 78%
    12:00 +19°C° 0 mm 2 mps 694 mmHg 75%
    13:00 +20°C° 0 mm 2 mps 694 mmHg 71%
    14:00 +19°C° 0 mm 2 mps 694 mmHg 75%
    15:00 +18°C° 0 mm 2 mps 694 mmHg 79%
    16:00 +18°C° 0 mm 2 mps 693 mmHg 82%
    17:00 +16°C° 0 mm 2 mps 693 mmHg 87%
    18:00 +15°C° 0 mm 1 mps 693 mmHg 91%
    19:00 +13°C° 0 mm 1 mps 693 mmHg 96%
    20:00 +13°C° 0 mm 1 mps 693 mmHg 96%
    21:00 +13°C° 0 mm 1 mps 694 mmHg 96%
    22:00 +12°C° 0 mm 1 mps 694 mmHg 96%
    23:00 +12°C° 0 mm 1 mps 694 mmHg 95%

    Tomorrow, 22 October, Tuesday

    Time Temperature Precipitation Wind Pressure Humidity
    00:00 +12°C° 0 mm 1 mps 694 mmHg 94%
    01:00 +12°C° 0 mm 1 mps 694 mmHg 94%
    02:00 +11°C° 0 mm 1 mps 693 mmHg 93%
    03:00 +11°C° 0 mm 1 mps 693 mmHg 92%
    04:00 +11°C° 0 mm 1 mps 693 mmHg 91%
    05:00 +10°C° 0 mm 0 mps 693 mmHg 91%
    06:00 +10°C° 0 mm 0 mps 694 mmHg 90%
    07:00 +10°C° 0 mm 0 mps 694 mmHg 90%
    08:00 +12°C° 0 mm 0 mps 694 mmHg 84%
    09:00 +14°C° 0 mm 0 mps 695 mmHg 78%
    10:00 +16°C° 0 mm 0 mps 695 mmHg 72%
    11:00 +17°C° 0 mm 0 mps 695 mmHg 69%
    12:00 +18°C° 0 mm 0 mps 695 mmHg 66%
    13:00 +21°C° 0 mm 1 mps 695 mmHg 63%
    14:00 +18°C° 0 mm 0 mps 695 mmHg 69%
    15:00 +17°C° 0 mm 0 mps 695 mmHg 75%
    16:00 +16°C° 0 mm 0 mps 694 mmHg 81%
    17:00 +15°C° 0 mm 0 mps 694 mmHg 84%
    18:00 +13°C° 0 mm 0 mps 694 mmHg 88%
    19:00 +12°C° 0 mm 0 mps 694 mmHg 91%
    20:00 +11°C° 0 mm 0 mps 694 mmHg 91%
    21:00 +11°C° 0 mm 0 mps 693 mmHg 90%
    22:00 +11°C° 0 mm 0 mps 693 mmHg 90%
    23:00 +10°C° 0 mm 0 mps 693 mmHg 90%

    Day after tomorrow, 23 October, Wednesday

    Time Temperature Precipitation Wind Pressure Humidity
    00:00 +10°C° 0 mm 0 mps 693 mmHg 90%
    01:00 +10°C° 0 mm 0 mps 693 mmHg 89%
    02:00 +10°C° 0 mm 0 mps 693 mmHg 89%
    03:00 +9°C° 0 mm 0 mps 692 mmHg 89%
    04:00 +9°C° 0 mm 0 mps 692 mmHg 88%
    05:00 +9°C° 0 mm 0 mps 692 mmHg 88%
    06:00 +9°C° 0 mm 0 mps 692 mmHg 87%
    07:00 +9°C° 0 mm 0 mps 692 mmHg 87%
    08:00 +11°C° 0 mm 0 mps 692 mmHg 80%
    09:00 +14°C° 0 mm 0 mps 692 mmHg 74%
    10:00 +16°C° 0 mm 0 mps 693 mmHg 68%
    11:00 +17°C° 0 mm 0 mps 693 mmHg 64%
    12:00 +18°C° 0 mm 0 mps 692 mmHg 61%
    13:00 +21°C° 0 mm 1 mps 692 mmHg 57%
    14:00 +20°C° 0 mm 1 mps 692 mmHg 64%
    15:00 +19°C° 0 mm 1 mps 691 mmHg 70%
    16:00 +16°C° 0 mm 0 mps 691 mmHg 77%
    17:00 +15°C° 0 mm 1 mps 691 mmHg 80%
    18:00 +14°C° 0 mm 1 mps 690 mmHg 82%
    19:00 +12°C° 0 mm 1 mps 690 mmHg 85%
    20:00 +12°C° 0 mm 1 mps 690 mmHg 85%
    21:00 +12°C° 0 mm 1 mps 690 mmHg 86%
    22:00 +11°C° 0 mm 1 mps 690 mmHg 86%
    23:00 +11°C° 0 mm 1 mps 690 mmHg 86%

    24 October, Thursday

    Time Temperature Precipitation Wind Pressure Humidity
    00:00 +11°C° 0 mm 1 mps 689 mmHg 87%
    01:00 +10°C° 0 mm 1 mps 689 mmHg 87%
    02:00 +10°C° 0 mm 1 mps 689 mmHg 87%
    03:00 +10°C° 0 mm 1 mps 689 mmHg 87%
    04:00 +10°C° 0 mm 1 mps 688 mmHg 87%
    05:00 +9°C° 0 mm 1 mps 688 mmHg 87%
    06:00 +9°C° 0 mm 1 mps 688 mmHg 87%
    07:00 +9°C° 0 mm 1 mps 688 mmHg 86%
    08:00 +12°C° 0 mm 1 mps 688 mmHg 79%
    09:00 +14°C° 0 mm 1 mps 689 mmHg 72%
    10:00 +16°C° 0 mm 1 mps 689 mmHg 64%
    11:00 +18°C° 0 mm 1 mps 689 mmHg 61%
    12:00 +19°C° 0 mm 1 mps 689 mmHg 59%
    13:00 +20°C° 0 mm 1 mps 690 mmHg 56%
    14:00 +19°C° 0 mm 1 mps 689 mmHg 61%
    15:00 +18°C° 0 mm 1 mps 689 mmHg 67%
    16:00 +16°C° 0 mm 1 mps 688 mmHg 73%
    17:00 +15°C° 0 mm 1 mps 688 mmHg 76%
    18:00 +13°C° 0 mm 1 mps 688 mmHg 79%
    19:00 +12°C° 0 mm 1 mps 688 mmHg 82%
    20:00 +11°C° 0 mm 1 mps 688 mmHg 81%
    21:00 +11°C° 0 mm 1 mps 688 mmHg 80%
    22:00 +11°C° 0 mm 1 mps 689 mmHg 79%
    23:00 +11°C° 0 mm 1 mps 689 mmHg 80%

    25 October, Friday

    Time Temperature Precipitation Wind Pressure Humidity
    00:00 +11°C° 0 mm 1 mps 689 mmHg 80%
    01:00 +11°C° 0 mm 1 mps 689 mmHg 81%
    02:00 +11°C° 0 mm 1 mps 689 mmHg 80%
    03:00 +11°C° 0 mm 1 mps 689 mmHg 79%
    04:00 +11°C° 0 mm 1 mps 689 mmHg 78%
    05:00 +11°C° 0 mm 1 mps 689 mmHg 80%
    06:00 +9°C° 0 mm 0 mps 690 mmHg 81%
    07:00 +9°C° 0 mm 0 mps 690 mmHg 82%
    08:00 +11°C° 0 mm 0 mps 690 mmHg 76%
    09:00 +14°C° 0 mm 1 mps 691 mmHg 70%
    10:00 +16°C° 0 mm 1 mps 692 mmHg 64%
    11:00 +18°C° 0 mm 1 mps 692 mmHg 62%
    12:00 +19°C° 0 mm 1 mps 692 mmHg 60%
    13:00 +19°C° 0 mm 1 mps 692 mmHg 59%
    14:00 +18°C° 0 mm 1 mps 692 mmHg 64%
    15:00 +18°C° 0 mm 1 mps 692 mmHg 70%
    16:00 +15°C° 0 mm 0 mps 692 mmHg 75%
    17:00 +13°C° 0 mm 0 mps 692 mmHg 80%
    18:00 +12°C° 0 mm 0 mps 692 mmHg 85%
    19:00 +10°C° 0 mm 0 mps 692 mmHg 90%
    20:00 +10°C° 0 mm 0 mps 692 mmHg 91%
    21:00 +10°C° 0 mm 0 mps 692 mmHg 91%
    22:00 +9°C° 0 mm 0 mps 692 mmHg 92%
    23:00 +9°C° 0 mm 0 mps 692 mmHg 92%

    26 October, Saturday

    Time Temperature Precipitation Wind Pressure Humidity
    00:00 +9°C° 0 mm 0 mps 692 mmHg 92%
    01:00 +8°C° 0 mm 0 mps 692 mmHg 93%
    02:00 +8°C° 0 mm 0 mps 691 mmHg 92%
    03:00 +8°C° 0 mm 0 mps 691 mmHg 91%
    04:00 +8°C° 0 mm 0 mps 691 mmHg 91%
    05:00 +8°C° 0 mm 0 mps 691 mmHg 89%
    06:00 +8°C° 0 mm 0 mps 691 mmHg 88%
    07:00 +9°C° 0 mm 1 mps 692 mmHg 86%
    08:00 +10°C° 0 mm 0 mps 692 mmHg 79%
    09:00 +12°C° 0 mm 0 mps 693 mmHg 72%
    10:00 +15°C° 0 mm 0 mps 694 mmHg 64%
    11:00 +16°C° 0 mm 0 mps 694 mmHg 61%
    12:00 +17°C° 0 mm 0 mps 694 mmHg 57%
    13:00 +18°C° 0 mm 0 mps 694 mmHg 53%
    14:00 +17°C° 0 mm 0 mps 693 mmHg 60%
    15:00 +16°C° 0 mm 0 mps 693 mmHg 67%
    16:00 +15°C° 0 mm 0 mps 693 mmHg 73%
    17:00 +13°C° 0 mm 0 mps 693 mmHg 77%
    18:00 +12°C° 0 mm 0 mps 693 mmHg 80%
    19:00 +11°C° 0 mm 1 mps 693 mmHg 83%
    20:00 +11°C° 0 mm 1 mps 693 mmHg 81%
    21:00 +10°C° 0 mm 1 mps 693 mmHg 79%
    22:00 +10°C° 0 mm 1 mps 693 mmHg 77%
    23:00 +9°C° 0 mm 0 mps 693 mmHg 77%
    Show more